Regional Weather Roundup
Issued by NWS Jackson, KY

Home | Current Version | Previous Version | Text Only | Print | Product List | Glossary Off
Versions: 1 2 3 4 5 6 7 8 9 10 11 12 13 14 15 16 17 18 19 20 21 22 23 24 25 26 27 28 29 30 31 32 33 34 35 36 37 38 39 40 41 42 43 44 45 46 47 48 49 50

000
ASUS43 KJKL 191410
RWRJKL

EAST KENTUCKY HOURLY WEATHER ROUNDUP
NATIONAL WEATHER SERVICE JACKSON KY
900 AM EST FRI JAN 19 2018

NOTE: "FAIR" INDICATES FEW OR NO CLOUDS BELOW 12,000 FEET WITH
NO SIGNIFICANT WEATHER AND/OR OBSTRUCTIONS TO VISIBILITY.

* THESE REPORTS ARE NOT UNDER NWS QUALITY CONTROL AND MAY NOT
  REPORT WEATHER SUCH AS PRECIPITATION AND FOG.

KYZ079-080-083-085-087-088-110-112-115-119-120-191500
...EASTERN KENTUCKY...

CITY           SKY/WX    TMP DP  RH WIND       PRES   REMARKS
JACKSON          N/A     24  10  55 SW5       30.25S WCI  18
LONDON           N/A     14  10  84 CALM      30.29S
SOMERSET*        N/A     19  12  73 W8        30.31F WCI   9
MONTICELLO*      N/A     20  16  84 CALM      30.32S
WILLIAMSBURG*    N/A     19  14  79 CALM      30.31S
MIDDLESBORO*     N/A     13  11  91 CALM      30.34F
HARLAN APT*      N/A     14  12  92 CALM      30.30S
PIKE CO APT*     N/A     27  10  48 S3        30.25F
BIG SANDY APT*   N/A     29   9  44 SW7       30.26F WCI  21
MOREHEAD APT*    N/A     27  10  50 SW10      30.25S WCI  17
ASHLAND*         N/A     22  19  89 E3        30.26F
$$

KYZ035-036-041-042-044-050-067-078-099-191500
...CENTRAL KENTUCKY...

CITY           SKY/WX    TMP DP  RH WIND       PRES   REMARKS
MT STERLING*     N/A     23  12  63 SW9       30.25S WCI  13
FLEMING/MASON*   N/A     22  12  65 SW8       30.23S WCI  12
DANVILLE*        N/A     23  14  68 SW9       30.27R WCI  13
LEXINGTON        N/A     24  12  60 S12       30.24R WCI  13
FRANKFORT        N/A     23  11  60 SW13      30.22R WCI  11
LOUISVILLE       N/A     26  13  57 S7        30.23S WCI  18
LEBANON*         N/A     25  12  58 S13       30.25S WCI  13
GLASGOW*         N/A     24  13  62 S3        30.29R
BOWLING GREEN    N/A     23  13  65 S7        30.29S WCI  15
$$

KYZ091>093-OHZ055-061-077-WVZ005-015-034-035-042-191500
...SOUTHERN OHIO/WEST VIRGINIA...

CITY           SKY/WX    TMP DP  RH WIND       PRES   REMARKS
COVINGTON        N/A     22  13  68 S13       30.16S WCI  10
COLUMBUS       PTSUNNY   20  12  71 S8        30.15S WCI  10
DAYTON           N/A     21  13  71 S14       30.11F WCI   8
WILMINGTON       N/A     20  12  71 SW13      30.14S WCI   7
HUNTINGTON       N/A     23  10  57 S8        30.24F WCI  14
CHARLESTON       N/A     23  12  62 S7        30.25S WCI  15
BECKLEY          N/A     23   6  48 SW8       30.20S WCI  14
BLUEFIELD        N/A     25   1  35 W8        30.19S WCI  16
LOGAN CO APT*    N/A     25  12  58 CALM      30.24S
$$

VAZ002-007-008-TNZ017-027-036-066-071-191500
...SOUTHWEST VIRGINIA/EAST TENNESSEE...

CITY           SKY/WX    TMP DP  RH WIND       PRES   REMARKS
WISE*            N/A     25  10  54 CALM      30.22S
JONESVILLE*      N/A     14  10  85 CALM      30.34F
ABINGDON*        N/A     21  14  73 CALM      30.28R
BRISTOL          N/A     16  13  88 CALM      30.33R
MORRISTOWN*    SUNNY     19  14  79 CALM      30.33R
SEVIERVILLE*   SUNNY     16  12  86 CALM      30.35F
KNOXVILLE        N/A     18  14  84 CALM      30.35S
LAFOLLETTE*    SUNNY     16  14  93 CALM      30.37F
OAK RIDGE        N/A     17  15  92 CALM      30.37R
CROSSVILLE       N/A     23   9  55 SW3       30.28S
NASHVILLE        N/A     22  15  75 S5        30.32S WCI  16
$$

...KEY TO REMARKS...
VSB - VISIBILITY IN MILES
WCI - WIND CHILL INDEX
HX  - HEAT INDEX

$$



USA.gov is the U.S. government's official web portal to all federal, state and local government web resources and services.